Regional Weather Roundup
Issued by NWS

Home | Current Version | Previous Version | Text Only | Print | Product List | Glossary Off
Versions: 1 2 3 4 5 6 7 8 9 10 11 12 13 14 15 16 17 18 19 20 21 22 23 24 25 26 27 28 29 30 31 32 33 34 35 36 37 38 39 40 41 42 43 44 45 46 47 48 49 50

623
ASUS45 KBOU 261712
RWRCO

WEATHER ROUNDUP FOR COLORADO
NATIONAL WEATHER SERVICE PUEBLO CO
1100 AM MDT WED APR 26 2017

NOTE: "FAIR" INDICATES FEW OR NO CLOUDS BELOW 12000 FEET WITH NO
SIGNIFICANT WEATHER AND/OR OBSTRUCTIONS TO VISIBILITY.

COZ001>005-013-030-031-261800-
...NORTHWEST COLORADO...

CITY           SKY/WX    TMP DP  RH WIND       PRES   REMARKS
CRAIG          CLOUDY    45  31  58 SW9       29.88F
HAYDEN         CLOUDY    39  28  65 NW3       29.89F
MEEKER         CLOUDY    44  35  70 CALM      29.90F
MOUNT WERNER   NOT AVBL
STEAMBOAT SPGS CLOUDY    36  31  83 E3        29.89F
WALDEN           N/A     36  23  60 W13       29.88R
$$

COZ006>008-011-261800-
...WEST CENTRAL VALLEYS...

CITY           SKY/WX    TMP DP  RH WIND       PRES   REMARKS
GRAND JUNCTION CLOUDY    51  34  52 CALM      29.91S
MONTROSE       CLOUDY    49  29  46 N8        29.94F
EAGLE          PTSUNNY   43  28  56 N6        29.91F
RIFLE          PTSUNNY   48  32  53 VRB3      29.91F
DELTA          NOT AVBL
NUCLA          FAIR      50  27  40 N3        29.97S
$$

COZ017>023-064>068-261800-
...SOUTHWEST COLORADO...

CITY           SKY/WX    TMP DP  RH WIND       PRES   REMARKS
DURANGO        CLOUDY    46  20  35 SW6       29.91F
CORTEZ         CLOUDY    52  28  39 MISG      29.93S
PAGOSA SPRINGS FAIR      44  21  41 S5        29.92F
TELLURIDE      CLOUDY    36  24  62 SW5       29.97S
WOLF CREEK PAS PTSUNNY   27  14  59 SW9       30.02R WCI  17
$$

COZ009-010-012-014-032>034-037-058>063-261800-
...CENTRAL COLORADO...

CITY           SKY/WX    TMP DP  RH WIND       PRES   REMARKS
ASPEN          CLOUDY    38  26  62 VRB6      29.90F
BUENA VISTA    CLOUDY    43  11  27 N6        29.85F
COPPER MTN     CLOUDY    23  18  80 MISG      29.90S
BERTHOUD PASS  CLOUDY    14   3  62 NW33G46   29.84S WCI  -8
COTTONWOOD PAS CLOUDY    39  12  33 SW5       29.88S
GUNNISON       CLOUDY    41  21  44 SW10G17   29.90F
KREMMLING      CLOUDY    43  32  65 NW6       29.89F
LEADVILLE      CLOUDY    32  15  49 W15G22    29.87F WCI  22
MONARCH PASS   CLOUDY    21  19  93 SW16G26   30.02S WCI   7
SALIDA         FAIR      51  16  24 SW14G24   29.92S
NIWOT RIDGE    NOT AVBL
SUNLIGHT       CLOUDY   N/A N/A N/A MISG      29.98R
WILKERSON PASS SUNNY     32  12  43 W7        29.91S WCI  26
$$

COZ069>075-261800-
...SAN LUIS VALLEY/SANGRE DE CRISTO MOUNTAINS...

CITY           SKY/WX    TMP DP  RH WIND       PRES   REMARKS
ALAMOSA        SUNNY     45  21  38 NW6       29.88F
LA VETA PASS   SUNNY     34  28  80 SW20      30.00F WCI  22
SAGUACHE       CLOUDY    45  16  31 NW8G24    29.89R
$$

COZ035-036-038>040-261800-
...NORTHERN COLORADO FRONT RANGE...

CITY           SKY/WX    TMP DP  RH WIND       PRES   REMARKS
DENVER INTL AP MOSUNNY   48  28  46 E5        29.79F
DMNS CITY PARK NOT AVBL
AURORA         MOSUNNY   47  26  44 CALM      29.80F
FRONT RANGE AP MOSUNNY   48  28  46 S3        29.81F
ERIE MUNI ARPT FAIR      49  28  42 CALM      29.79S
BOULDER MUN AP PTSUNNY   50  30  46 NE5       29.78F
CENTENNIAL     MOSUNNY   47  27  45 S3        29.79F
BROOMFIELD     MOSUNNY   48  28  46 SE9       29.79F
LOVELAND       SUNNY     48  30  49 VRB6      29.80F
LONGMONT       FAIR      53  32  44 E8        29.81S
$$

COZ041-046-047-076>085-087-088-261800-
...PIKES PEAK/PALMER DIVIDE AND SOUTHERN FOOTHILLS...

CITY           SKY/WX    TMP DP  RH WIND       PRES   REMARKS
COLO. SPRINGS  MOSUNNY   44  32  62 S7        29.84F
A. F. ACADEMY  MOSUNNY   45  28  53 S5        29.82F
ELLICOTT       FAIR       1  32 100 VRB5      29.82F WCI  -9
FALCON         FAIR      44  24  45 W5        29.84F
SCHRIEVER AFB  FAIR      44  29  56 SW7       29.83F
FORT CARSON    MOSUNNY   45  31  59 SE6       29.83F
LIMON          SUNNY     45  31  58 NW16G23   29.82S
MONUMENT HILL  SUNNY     37  32  81 S5        29.84F
TRINIDAD       SUNNY     42  34  73 MISG      29.86F
$$

COZ042>045-048>051-090-091-261800-
...NORTHEAST COLORADO...

CITY           SKY/WX    TMP DP  RH WIND       PRES   REMARKS
GREELEY ARPT   SUNNY     49  30  48 SE6       29.81F
AKRON          SUNNY     47  30  51 N20G26    29.79F
BURLINGTON     NOT AVBL
WRAY           NOT AVBL
STERLING       FAIR      50  32  50 N14       29.78F
HOLYOKE        FAIR      46  32  57 N17       29.81S
FORT MORGAN    FAIR      53  27  37 N10       29.80F
$$

COZ086-089-092>099-261800-
...SOUTHEAST COLORADO...

CITY           SKY/WX    TMP DP  RH WIND       PRES   REMARKS
PUEBLO         SUNNY     49  36  61 SE6       29.84F
LA JUNTA       MOSUNNY   51  33  50 NW10G25   29.85S
LAMAR          MOSUNNY   50  32  50 N14       29.81F
SPRINGFIELD      N/A     46  32  58 NW23G35   29.82S
$$





USA.gov is the U.S. government's official web portal to all federal, state and local government web resources and services.